Weather History for Indianapolis Mount Comfort, IN

Change the Weather History Date:

Sunday, February 2, 2014

  Actual Average (KEYE) Record (KEYE)
Temperature  
Mean Temperature 26 °F 29 °F  
Max Temperature 32 °F 37 °F 52 °F (1997)
Min Temperature 21 °F 22 °F 5 °F (2001)
Degree Days  
Heating Degree Days 38 36  
Month to date heating degree days 72  
Since 1 July heating degree days 3273  
Cooling Degree Days 0 0  
Month to date cooling degree days 0  
Year to date cooling degree days 0  
Moisture  
Dew Point 23 °F    
Average Humidity 91    
Maximum Humidity 100    
Minimum Humidity 80    
Precipitation  
Precipitation 0.00 in 0.06 in 0.80 in (2006)
Month to date precipitation 0.12  
Year to date precipitation 2.33  
Sea Level Pressure  
Sea Level Pressure 30.14 in    
Wind  
Wind Speed 10 mph (North)    
Max Wind Speed 15 mph    
Max Gust Speed -    
Visibility 8 miles    
Events      
T = Trace of Precipitation, MM = Missing Value Source: NWS Daily Summary

Daily Weather History Graph

Daily Weather History Graph

Search for Another Location

Airport:

Trip Planner

Search our weather history database for the weather conditions in past years. The results will help you decide how hot, cold, wet, or windy it might be!

Date:

Astronomy

Feb. 02, 2014 Rise Set
Actual Time 7:50 AM EST 6:04 PM EST
Civil Twilight 7:22 AM EST 6:32 PM EST
Nautical Twilight 6:50 AM EST 7:05 PM EST
Astronomical Twilight 6:18 AM EST 7:36 PM EST
Moon 9:17 AM EST (2/2) 9:47 PM EST (2/2)
Length of Visible Light 11h 10m
Length of Day
10h 13m
Waxing Crescent, 11% of the Moon is Illuminated
Feb 2
Waxing Crescent
Feb 6
First Quarter
Feb 14
Full
Feb 22
Last Quarter
Mar 1
New

Hourly Weather History & Observations

Time (EST) Temp. Windchill Dew Point Humidity Pressure Visibility Wind Dir Wind Speed Gust Speed Precip Events Conditions
12:14 AM 32.0 °F 23.6 °F - N/A% 29.98 in 5.0 mi North 10.4 mph - N/A   Overcast
12:35 AM 32.0 °F 25.6 °F - N/A% 29.99 in 5.0 mi North 6.9 mph - N/A   Overcast
12:54 AM 32.0 °F 24.2 °F - N/A% 29.99 in 5.0 mi North 9.2 mph - N/A   Overcast
1:14 AM 32.0 °F 24.2 °F - N/A% 29.99 in 5.0 mi North 9.2 mph - N/A   Overcast
1:35 AM 32.0 °F 22.5 °F - N/A% 29.99 in 5.0 mi North 12.7 mph - N/A   Overcast
1:54 AM 32.0 °F 23.6 °F - N/A% 30.00 in 5.0 mi North 10.4 mph - N/A   Overcast
2:14 AM 32.0 °F 22.1 °F - N/A% 30.00 in 5.0 mi North 13.8 mph - N/A   Overcast
2:34 AM 32.0 °F 22.5 °F - N/A% 30.01 in 4.0 mi North 12.7 mph - N/A   Overcast
2:54 AM 32.0 °F 22.5 °F - N/A% 30.00 in 5.0 mi North 12.7 mph - N/A   Overcast
3:14 AM 30.2 °F 19.8 °F - N/A% 30.01 in 5.0 mi North 13.8 mph - N/A   Overcast
3:34 AM 30.2 °F 19.8 °F - N/A% 30.01 in 4.0 mi North 13.8 mph - N/A   Overcast
3:54 AM 30.2 °F 20.2 °F - N/A% 30.04 in 3.0 mi North 12.7 mph - N/A   Overcast
4:14 AM 28.4 °F 18.0 °F - N/A% 30.04 in 1.2 mi North 12.7 mph - N/A   Overcast
4:34 AM 28.4 °F 17.5 °F - N/A% 30.03 in 1.2 mi North 13.8 mph - N/A   Overcast
4:54 AM 28.4 °F 18.0 °F - N/A% 30.04 in 2.0 mi North 12.7 mph - N/A   Overcast
5:14 AM 28.4 °F 18.5 °F - N/A% 30.05 in 1.8 mi North 11.5 mph - N/A   Overcast
5:34 AM 28.4 °F 17.5 °F - N/A% 30.07 in 7.0 mi North 13.8 mph - N/A   Overcast
5:54 AM 28.4 °F 18.5 °F - N/A% 30.06 in 5.0 mi North 11.5 mph - N/A   Overcast
6:15 AM 28.4 °F 18.0 °F - N/A% 30.06 in 5.0 mi North 12.7 mph - N/A   Overcast
6:34 AM 28.4 °F 18.5 °F - N/A% 30.07 in 4.0 mi North 11.5 mph - N/A   Overcast
6:54 AM 28.4 °F 18.5 °F - N/A% 30.07 in 7.0 mi North 11.5 mph - N/A   Mostly Cloudy
7:15 AM 28.4 °F 19.1 °F 28.4 °F 100% 30.07 in 10.0 mi North 10.4 mph - N/A   Scattered Clouds
7:34 AM 28.4 °F 17.5 °F 28.4 °F 100% 30.08 in 10.0 mi North 13.8 mph - N/A   Scattered Clouds
7:54 AM 26.6 °F 16.2 °F 26.6 °F 100% 30.09 in 10.0 mi North 11.5 mph - N/A   Scattered Clouds
8:15 AM 26.6 °F 16.8 °F 26.6 °F 100% 30.12 in 10.0 mi North 10.4 mph - N/A   Clear
8:34 AM 26.6 °F 19.1 °F 26.6 °F 100% 30.12 in 10.0 mi North 6.9 mph - N/A   Clear
8:54 AM 26.6 °F 17.5 °F 26.6 °F 100% 30.13 in 10.0 mi North 9.2 mph - N/A   Clear
9:15 AM 26.6 °F 17.5 °F 26.6 °F 100% 30.15 in 10.0 mi North 9.2 mph - N/A   Clear
9:34 AM 26.6 °F 17.5 °F 26.6 °F 100% 30.16 in 10.0 mi North 9.2 mph - N/A   Clear
9:54 AM 26.6 °F 19.1 °F 26.6 °F 100% 30.16 in 10.0 mi North 6.9 mph - N/A   Clear
10:14 AM 28.4 °F 19.7 °F 28.4 °F 100% 30.17 in 10.0 mi North 9.2 mph - N/A   Scattered Clouds
10:34 AM 28.4 °F 21.2 °F 28.4 °F 100% 30.17 in 10.0 mi North 6.9 mph - N/A   Mostly Cloudy
10:54 AM 28.4 °F 20.4 °F 28.4 °F 100% 30.18 in 10.0 mi North 8.1 mph - N/A   Overcast
11:14 AM 28.4 °F 19.1 °F 28.4 °F 100% 30.19 in 10.0 mi North 10.4 mph - N/A   Overcast
11:34 AM 28.4 °F 19.7 °F 26.6 °F 93% 30.20 in 10.0 mi North 9.2 mph - N/A   Overcast
11:55 AM 28.4 °F 19.1 °F 28.4 °F 100% 30.20 in 7.0 mi North 10.4 mph - N/A   Overcast
12:14 PM 28.4 °F 19.7 °F 28.4 °F 100% 30.20 in 7.0 mi North 9.2 mph - N/A   Overcast
12:34 PM 28.4 °F 18.5 °F 26.6 °F 93% 30.18 in 10.0 mi NNW 11.5 mph - N/A   Overcast
12:55 PM 28.4 °F 18.5 °F 26.6 °F 93% 30.17 in 10.0 mi North 11.5 mph - N/A   Overcast
1:14 PM 28.4 °F 18.5 °F 26.6 °F 93% 30.16 in 10.0 mi North 11.5 mph - N/A   Overcast
1:34 PM 28.4 °F 18.0 °F 24.8 °F 86% 30.17 in 10.0 mi NNW 12.7 mph - N/A   Overcast
1:55 PM 26.6 °F 17.5 °F 24.8 °F 93% 30.18 in 10.0 mi NNW 9.2 mph - N/A   Overcast
2:14 PM 26.6 °F 17.5 °F 24.8 °F 93% 30.17 in 10.0 mi North 9.2 mph - N/A   Overcast
2:34 PM 28.4 °F 21.2 °F 24.8 °F 86% 30.16 in 10.0 mi North 6.9 mph - N/A   Mostly Cloudy
2:55 PM 28.4 °F 20.4 °F 24.8 °F 86% 30.17 in 10.0 mi NNW 8.1 mph - N/A   Mostly Cloudy
3:14 PM 28.4 °F 18.5 °F 23.0 °F 80% 30.21 in 10.0 mi NNW 11.5 mph - N/A   Mostly Cloudy
3:34 PM 26.6 °F 14.7 °F 23.0 °F 86% 30.21 in 10.0 mi NNW 15.0 mph - N/A   Mostly Cloudy
3:55 PM 26.6 °F 16.2 °F 23.0 °F 86% 30.20 in 10.0 mi NNW 11.5 mph - N/A   Overcast
4:14 PM 26.6 °F 17.5 °F 23.0 °F 86% 30.20 in 10.0 mi NNW 9.2 mph - N/A   Overcast
4:34 PM 26.6 °F 17.5 °F 23.0 °F 86% 30.20 in 10.0 mi NNW 9.2 mph - N/A   Mostly Cloudy
4:55 PM 24.8 °F 16.1 °F 23.0 °F 93% 30.22 in 10.0 mi NNW 8.1 mph - N/A   Clear
5:14 PM 24.8 °F 14.6 °F 21.2 °F 86% 30.22 in 10.0 mi North 10.4 mph - N/A   Scattered Clouds
5:34 PM 24.8 °F 14.6 °F 19.4 °F 80% 30.22 in 10.0 mi North 10.4 mph - N/A   Clear
5:55 PM 24.8 °F 14.6 °F 19.4 °F 80% 30.22 in 10.0 mi North 10.4 mph - N/A   Clear
6:14 PM 23.0 °F 14.7 °F 19.4 °F 86% 30.21 in 10.0 mi North 6.9 mph - N/A   Clear
6:34 PM 23.0 °F 14.7 °F 21.2 °F 93% 30.23 in 10.0 mi North 6.9 mph - N/A   Clear
6:55 PM 23.0 °F 13.9 °F 21.2 °F 93% 30.23 in 10.0 mi North 8.1 mph - N/A   Clear
7:14 PM 23.0 °F 14.7 °F 21.2 °F 93% 30.21 in 10.0 mi North 6.9 mph - N/A   Clear
7:34 PM 23.0 °F 14.7 °F 19.4 °F 86% 30.22 in 10.0 mi North 6.9 mph - N/A   Clear
7:54 PM 23.0 °F 13.9 °F 19.4 °F 86% 30.23 in 10.0 mi North 8.1 mph - N/A   Clear
8:14 PM 23.0 °F 13.1 °F 19.4 °F 86% 30.23 in 10.0 mi North 9.2 mph - N/A   Clear
8:34 PM 23.0 °F 13.1 °F 19.4 °F 86% 30.22 in 10.0 mi North 9.2 mph - N/A   Clear
8:54 PM 23.0 °F 13.9 °F 19.4 °F 86% 30.24 in 10.0 mi North 8.1 mph - N/A   Scattered Clouds
9:14 PM 23.0 °F 14.7 °F 19.4 °F 86% 30.24 in 10.0 mi North 6.9 mph - N/A   Scattered Clouds
9:35 PM 23.0 °F 13.1 °F 17.6 °F 80% 30.22 in 10.0 mi North 9.2 mph - N/A   Scattered Clouds
9:54 PM 23.0 °F 12.4 °F 17.6 °F 80% 30.22 in 10.0 mi North 10.4 mph - N/A   Mostly Cloudy
10:14 PM 23.0 °F 13.1 °F 17.6 °F 80% 30.22 in 10.0 mi North 9.2 mph - N/A   Mostly Cloudy
10:35 PM 21.2 °F 10.1 °F 17.6 °F 86% 30.22 in 10.0 mi North 10.4 mph - N/A   Scattered Clouds
10:54 PM 21.2 °F 10.9 °F 19.4 °F 93% 30.23 in 10.0 mi North 9.2 mph - N/A   Scattered Clouds
11:14 PM 21.2 °F 10.1 °F 17.6 °F 86% 30.23 in 10.0 mi North 10.4 mph - N/A   Scattered Clouds
11:35 PM 21.2 °F 9.5 °F 19.4 °F 93% 30.22 in 10.0 mi North 11.5 mph - N/A   Scattered Clouds
11:54 PM 21.2 °F 8.9 °F 17.6 °F 86% 30.21 in 10.0 mi North 12.7 mph - N/A   Scattered Clouds